Regional Weather Roundup
Issued by NWS

Home | Current Version | Previous Version | Text Only | Print | Product List | Glossary Off
Versions: 1 2 3 4 5 6 7 8 9 10 11 12 13 14 15 16 17 18 19 20 21 22 23 24 25 26 27 28 29 30 31 32 33 34 35 36 37 38 39 40 41 42 43 44 45 46 47 48 49 50

000
ASUS43 KMKX 291400
RWRWI

WISCONSIN REGIONAL WEATHER ROUNDUP
NATIONAL WEATHER SERVICE MILWAUKEE/SULLIVAN WI
900 AM CDT MON AUG 29 2016

NOTE: "FAIR" INDICATES FEW OR NO CLOUDS BELOW 12,000 FEET WITH NO
SIGNIFICANT WEATHER AND/OR OBSTRUCTIONS TO VISIBILITY.

WIZ001-002-006>008-014>016-023>028-291500-
NORTHWEST WISCONSIN

CITY           SKY/WX    TMP DP  RH WIND       PRES   REMARKS
SUPERIOR ARPT  CLOUDY    65  64  94 CALM      30.11R
ASHLAND        CLOUDY    67  62  84 S23G32    30.07F
HAYWARD        CLOUDY    66  64  93 S7        30.22F
SIREN          CLOUDY    66  64  93 SE8       30.25F
CUMBERLAND     CLOUDY    66  63  88 NE3       30.27R
RICE LAKE      CLOUDY    69  66  88 N6        30.29R
CHETEK         NOT AVBL
LADYSMITH      CLOUDY    67  65  93 CALM      30.30R
EAU CLAIRE     CLOUDY    70  67  90 N7        30.25R
MENOMONIE      CLOUDY    69  68  99 N7        30.26R FOG
NEW RICHMOND   CLOUDY    71  71 100 NE3       30.26R
OSCEOLA        CLOUDY    71  70  98 NE7       30.28R
$$

WIZ003>005-009-010-017-018-291500-
NORTH CENTRAL WISCONSIN

CITY           SKY/WX    TMP DP  RH WIND       PRES   REMARKS
MANITOWISH WTR NOT AVBL
ARBOR VITAE    LGT RAIN  65  63  93 S5        30.26F
WOODRUFF       LGT RAIN  65  63  93 S5        30.26F
RHINELANDER    CLOUDY    68  66  93 CALM      30.29R
EAGLE RIVER    LGT RAIN  65  65 100 CALM      30.26S
LAND O LAKES   PTSUNNY   65  65 100 CALM      30.26F
PHILLIPS       LGT RAIN  64  64  98 S3        30.26S
TOMAHAWK       DRIZZLE   64  63  96 CALM      30.29R
MEDFORD        CLOUDY    67  67 100 S6        30.26S FOG
MERRILL        CLOUDY    68  68 100 NW3       30.28R FOG
$$

WIZ029-030-035-036-043>047-291500-
CENTRAL WISCONSIN

CITY           SKY/WX    TMP DP  RH WIND       PRES   REMARKS
WAUSAU         FOG       67  67 100 SW7       30.26R VSB 1/4
MOSINEE        FOG       66  66 100 CALM      30.29R VSB 1/4
MARSHFIELD     CLOUDY    69  67  93 CALM      30.27R FOG
STEVENS POINT  CLOUDY    66  66 100 S5        30.28R FOG
WAUPACA        PTSUNNY   71  70  97 CALM      30.26S
WAUTOMA        CLOUDY    72  67  84 SW3       30.26S
WISC RAPIDS    CLOUDY    70  68  93 S5        30.28R
CAMP DOUGLAS   FOG       66  66 100 VRB1      30.25R VSB 3/4
$$

WIZ011>013-019>022-031-037>040-048>050-291500-
NORTHEAST WISCONSIN

CITY           SKY/WX    TMP DP  RH WIND       PRES   REMARKS
ANTIGO         CLOUDY    65  65 100 S5        30.28S FOG
SHAWANO        CLOUDY    70  65  84 CALM      30.27R
OCONTO         NOT AVBL
STURGEON BAY   CLOUDY    70  66  87 SE7       30.27S
GREEN BAY      CLOUDY    70  68  93 S3        30.26S
MANITOWOC      NOT AVBL
APPLETON       PTSUNNY   72  70  94 VRB5      30.25R
CLINTONVILLE   CLOUDY    70  64  83 CALM      30.26S
OSHKOSH        MOSUNNY   72  66  81 S3        30.25F
$$

WIZ032>034-041-042-053>061-291500-
SOUTHWEST WISCONSIN

CITY           SKY/WX    TMP DP  RH WIND       PRES   REMARKS
LA CROSSE      MOSUNNY   75  70  84 S3        30.23R
SPARTA         SUNNY     69  66  92 N5        30.25R
VIROQUA        MOSUNNY   71  69  94 SE5       30.25S
BOSCOBEL       FOG       70  68  93 CALM      30.24R VSB 1
PRAIRIE DU CHI CLOUDY    70  67  92 CALM      30.23S
PLATTEVILLE    CLOUDY    69  69 100 E8        30.25S VSB 1
$$

WIZ056-057-062-063-064-067-068-291500-
SOUTH CENTRAL WISCONSIN

CITY           SKY/WX    TMP DP  RH WIND       PRES   REMARKS
REEDSBURG      NOT AVBL
BARABOO/DELLS  PTSUNNY   70  69  95 S5        30.26R
LONE ROCK      NOT AVBL
MINERAL POINT  FOG       70  70 100 SE5       30.25S VSB 1
MADISON        PTSUNNY   73  66  78 VRB3      30.24F
MIDDLETON      SUNNY     74  70  87 E5        30.25F
WATERTOWN      SUNNY     71  69  93 SE3       30.25S
MONROE         CLOUDY    70  68  94 CALM      30.25S
JANESVILLE     PTSUNNY   73  70  88 E9        30.23F
$$

WIZ051-052-058>065-066-070>072-291500-
SOUTHEAST WISCONSIN

CITY           SKY/WX    TMP DP  RH WIND       PRES   REMARKS
MILWAUKEE      PTSUNNY   71  68  90 NE6       30.26R
WAUKESHA       SUNNY     68  64  88 NE3       30.27S
MILWAUKEE/TIMM SUNNY     72  64  78 E5        30.27R
RACINE         MOSUNNY   71  69  93 NE5       30.27S
BURLINGTON     MOSUNNY   67  67  99 E5        30.25S
KENOSHA        SUNNY     74  69  85 E7        30.25F
FOND DU LAC    SUNNY     72  65  78 S3        30.26S
SHEBOYGAN      PTSUNNY   68  66  93 CALM      30.26S
WEST BEND      PTSUNNY   68  68 100 E3        30.26S
JUNEAU         SUNNY     70  65  85 CALM      30.27S
$$

LSZ147-162-291500-
LAKE SUPERIOR

STATION/POSITION TIME  TEMP    WIND        PRES    WAVE
                       AIR SEA DIR/SP/G            HT/PER
                 (UTC) (F)     (DEG/KT/KT) (MB)    (FT/S)
W MID LAKE BUOY  1250   67 67  170/ 12/ 14 1017.8F   2/ 4
DEVILS ISLAND    1300   66     200/ 12/ 16 1019.5F
PORT WING        1300   66     210/  6/ 19 1018.3F
SAXON HARBOR     1300   67     190/  6/ 11 1020.3F
$$

LMZ867-665-643>646-291500-
LAKE MICHIGAN

STATION/POSITION TIME  TEMP    WIND        PRES    WAVE
                       AIR SEA DIR/SP/G            HT/PER
                 (UTC) (F)     (DEG/KT/KT) (MB)    (FT/S)
CHAMBERS ISLAND  1300   72     100/  3/  4 1024.4S
N MID LAKE BUOY  1250   69 71  150/ 12/ 14 1024.2R   1/ 3
NORTHPORT PIER   1300   71     140/  6/  8 1024.4
KEWAUNEE LAKESHO 1300   65      20/  3/  3 1024.0F
SHEBOYGAN LAKESH 1300   65     360/  2/  2 1024.2R
PORT WASHINGTON  1300   74      CALM  /  2 1025.1S
ATWATER BUOY     1300   65      10/  6/  8   N/A
MILWAUKEE LAKESH 1310   67      50/  7/  7   N/A
S MID LAKE BUOY  1250   73 74   60/  6/  6 1023.5R   0
KENOSHA   LAKESH 1300   68     360/  6/  7 1024.0R
$$

TC  - TEMPERATURE IN CELSIUS
VSB - VISIBILITY IN STATUTE MILES
WCI - WIND CHILL INDEX
HX  - HEAT INDEX





USA.gov is the U.S. government's official web portal to all federal, state and local government web resources and services.